Helicity
29 31 35 43 36 35 29 21 33 34 27 19 23 33 41 42 30 26 33 31 44 49 58 75 89 109 178 210 174 156 122 47 11 53 79 60 86 124 151 190 126 74 124 72 60 93 104
24 27 31 36 32 39 31 35 34 27 30 27 20 26 39 50 46 32 29 41 43 30 50 65 81 101 156 142 112 99 112 103 117 99 45 88 114 94 166 129 167 166 75 116 96 75 63
17 25 26 37 45 36 36 33 38 38 22 32 24 25 37 49 49 38 33 42 43 26 33 57 70 91 146 116 135 107 110 76 61 111 138 33 39 156 177 166 195 140 144 117 65 70 101
9 7 17 31 39 39 40 38 38 41 33 34 36 28 35 34 54 37 50 57 57 36 26 46 57 79 166 72 51 97 159 83 26 48 68 85 76 75 139 163 194 194 136 116 80 130 77
37 19 17 18 35 39 45 51 43 36 34 28 35 41 31 30 42 54 61 65 67 77 37 64 82 121 123 123 107 55 68 45 43 52 65 51 129 127 124 162 195 153 196 116 111 143 83
77 49 32 31 24 42 54 59 54 43 32 39 33 46 47 41 48 63 78 100 99 105 94 125 111 171 109 51 56 30 42 32 50 77 83 87 143 150 156 192 221 237 154 174 114 126 111
177 140 49 43 42 46 54 55 56 55 43 41 43 52 63 50 65 75 140 106 119 134 195 294 143 146 238 72 89 82 30 75 72 105 142 128 184 160 156 128 96 141 147 99 114 97 64
173 124 43 48 39 51 57 58 61 62 52 59 46 67 68 61 64 93 108 147 123 149 135 152 102 177 100 207 131 82 85 121 112 121 112 157 118 70 92 81 78 76 113 142 89 89 16
227 203 173 61 44 47 47 51 59 54 55 59 56 72 74 74 88 109 99 87 108 144 147 224 189 246 223 181 141 97 111 97 126 110 143 159 126 68 94 88 103 82 71 79 122 46 102
173 177 254 233 221 46 32 46 54 60 51 62 63 72 81 118 101 65 69 67 127 132 165 228 251 226 192 275 278 127 142 121 171 128 105 113 74 90 102 107 131 84 24 48 85 77 165
109 129 165 182 352 248 42 29 42 44 42 63 61 74 78 64 104 72 98 113 125 85 219 197 202 127 131 309 313 146 220 190 155 152 201 186 145 89 79 105 136 143 88 42 110 76 185
43 80 120 89 286 358 200 37 24 23 39 46 49 63 75 43 45 128 110 92 110 204 278 277 274 188 219 180 223 216 128 66 90 48 80 58 84 58 56 42 69 112 88 27 -8 114 113
51 74 54 122 123 366 313 70 36 21 33 42 46 66 110 109 70 198 130 144 195 262 221 211 200 210 134 177 160 185 72 101 173 231 96 31 18 54 59 16 20 64 59 13 13 151 110
75 51 36 51 66 382 331 145 31 22 34 38 42 48 132 176 201 212 150 184 198 134 254 330 267 186 166 173 122 125 127 66 24 9 -26 -58 -97 -19 13 -33 -25 -13 30 155 207 335 365
83 74 26 44 25 451 396 97 41 27 40 49 56 109 180 140 215 206 200 232 250 170 212 214 188 169 199 133 55 70 8 18 10 -5 -47 -81 22 -29 -64 -103 -6 -119 -133 -102 105 65 334
24 73 41 40 -61 267 478 205 41 20 52 69 130 158 150 255 256 225 175 280 239 180 253 211 146 114 112 94 81 32 -28 -49 4 -17 28 -15 42 -16 41 29 3 -5 -42 10 188 143 124
41 32 -11 152 2 23 343 218 67 25 57 124 133 116 85 256 252 240 226 254 158 211 258 177 146 81 18 111 59 9 -10 8 -8 -41 55 -42 59 6 25 -25 4 49 86 231 124 152 247
63 -3 20 243 -41 -44 298 223 174 23 76 123 139 118 95 181 202 246 235 234 180 162 173 88 35 -49 28 60 26 2 37 7 -27 13 7 36 106 -12 -20 70 114 67 113 313 292 204 245
51 13 59 131 22 44 327 274 123 55 141 163 130 127 125 184 123 176 178 150 245 220 98 90 39 34 -10 10 67 66 41 14 -4 97 -25 79 75 17 96 215 248 145 119 167 316 167 221
49 3 84 55 114 14 372 477 77 86 73 144 146 113 140 182 144 118 154 125 202 140 65 58 -22 12 7 21 28 3 46 -44 -37 109 89 -3 136 29 121 76 159 117 118 137 168 182 213
47 16 77 61 65 71 294 269 129 53 72 167 145 94 106 75 76 70 96 54 67 34 14 44 -6 -11 10 -4 16 34 -10 12 39 7 -21 75 43 107 102 91 64 19 -16 47 62 70 127
65 36 61 77 56 -57 341 334 434 36 84 157 106 120 102 68 49 58 38 56 112 199 38 -9 27 1 9 32 3 24 1 30 10 -36 16 51 69 266 68 112 66 40 43 66 45 65 51
72 58 60 61 35 -25 315 322 418 16 130 137 161 121 114 60 32 79 40 62 59 119 64 -81 -26 26 0 77 23 47 4 -12 -7 -7 -6 22 50 130 72 68 93 106 54 36 38 61 53
58 76 56 63 108 -64 127 326 339 3 38 126 113 118 90 48 38 11 1 33 81 109 80 -54 -27 4 50 84 41 9 173 136 67 49 23 42 39 83 74 65 32 58 58 47 64 72 36
51 72 53 55 117 -114 140 352 270 60 -3 125 126 91 70 50 15 15 25 45 22 60 56 -69 83 105 100 120 44 67 89 72 84 72 90 61 65 66 77 75 108 45 37 49 63 67 45
55 74 71 55 139 -54 79 318 366 101 4 87 94 103 92 88 24 47 30 48 25 27 89 55 62 129 76 129 96 52 78 97 86 101 96 135 149 113 103 83 63 74 41 63 86 84 81
53 70 80 38 97 21 93 287 377 178 23 79 53 89 72 30 -14 0 12 19 61 36 38 55 70 125 139 106 81 74 23 45 21 69 130 149 153 24 56 66 70 18 -18 48 79 74 80
41 68 90 58 100 36 96 318 313 127 36 71 59 56 94 48 21 18 20 6 30 52 26 55 100 52 81 162 127 145 43 40 42 48 129 140 124 71 90 33 1 56 48 38 29 51 53
32 66 89 52 109 22 163 245 308 305 26 42 65 74 94 70 37 38 16 -2 13 39 42 37 135 88 84 152 86 171 127 127 82 66 45 90 110 114 76 23 14 51 50 74 45 30 75
Wind_Speed
77 75 73 71 71 66 58 54 41 40 41 40 39 39 39 38 38 39 39 40 39 40 37 40 38 33 31 44 47 31 33 34 30 32 38 40 47 47 51 49 52 52 60 70 69 79 83
77 76 76 71 72 71 63 55 48 42 39 38 39 38 38 36 34 35 37 37 38 39 36 38 41 34 42 57 41 36 33 35 40 38 31 45 50 51 65 59 62 57 65 78 83 79 74
79 77 77 74 72 71 66 59 53 48 45 37 39 39 37 33 30 31 34 33 37 39 35 38 41 36 49 43 39 36 28 41 43 43 42 30 50 58 47 63 70 71 72 67 80 80 78
81 78 77 77 73 71 69 60 56 52 48 40 38 39 37 34 30 29 30 31 34 38 35 35 39 40 57 42 42 39 39 42 47 48 47 48 46 54 63 58 67 64 63 73 67 70 81
71 76 74 73 71 70 68 60 57 54 50 45 40 37 37 35 32 27 26 29 35 38 40 30 33 37 62 38 38 35 30 32 32 35 37 42 49 52 56 60 63 68 68 64 76 71 71
88 72 70 72 70 69 65 60 57 53 50 46 44 39 34 35 34 29 23 31 39 44 38 27 35 42 49 47 35 28 28 30 37 39 41 38 43 53 56 55 71 68 69 72 76 73 79
96 93 72 71 70 70 64 63 59 54 52 48 46 41 34 34 32 28 26 37 48 46 30 28 31 32 44 43 33 27 19 24 34 43 47 40 50 59 57 59 73 77 84 82 82 70 83
95 94 79 73 70 68 65 60 59 54 50 44 44 38 33 32 30 28 22 37 38 41 57 29 35 33 32 46 40 30 16 26 32 44 42 47 61 59 65 74 81 89 90 93 76 84 75
100 97 92 86 79 69 64 59 54 55 50 42 39 35 33 30 30 30 26 30 35 43 54 42 31 38 32 33 40 32 23 28 36 41 45 54 62 68 73 79 85 97 98 89 85 71 72
100 95 93 88 76 75 66 61 54 52 50 44 34 32 29 22 34 29 26 29 26 34 55 49 43 40 27 30 44 30 27 31 44 46 46 54 72 75 73 88 85 106 99 98 86 87 86
97 91 92 92 83 81 76 63 59 53 50 39 33 27 23 13 28 28 29 26 26 32 64 38 35 27 28 23 36 34 32 39 41 41 38 47 56 66 82 85 88 105 86 108 111 76 68
95 91 90 88 83 81 81 71 63 57 50 41 39 27 21 26 36 26 20 23 29 40 51 38 36 31 27 23 30 41 22 28 35 41 37 52 45 48 63 93 96 100 99 102 105 75 88
95 94 90 88 81 82 79 73 65 60 51 40 39 28 24 21 32 9 15 26 40 38 39 40 39 31 27 34 28 29 17 28 28 36 39 58 81 78 67 82 102 106 97 105 87 77 83
93 92 87 83 79 77 72 70 57 57 50 41 38 32 26 27 6 7 12 33 38 38 34 39 36 30 35 30 22 11 23 21 28 71 57 67 71 83 82 90 103 123 121 73 77 84 71
91 86 82 75 75 75 73 69 68 58 48 43 34 33 26 21 4 3 20 33 36 39 35 33 33 35 36 20 16 6 15 43 75 82 67 58 60 62 79 94 97 103 111 93 54 42 53
87 83 76 66 68 70 68 57 67 56 45 37 38 34 35 11 9 5 32 29 32 31 30 25 28 23 27 16 9 32 66 57 74 70 71 57 47 56 74 73 89 95 87 77 48 56 58
83 81 73 75 61 57 62 58 66 52 38 31 38 46 29 13 8 20 38 29 33 20 17 20 20 18 11 19 42 60 58 59 55 67 61 60 58 52 65 84 95 72 82 74 38 45 44
77 76 71 69 54 54 56 59 61 46 29 35 41 50 17 13 29 38 34 30 31 24 3 9 7 7 24 47 54 57 60 47 59 67 61 58 44 62 71 67 64 77 71 62 55 38 29
74 73 70 59 51 50 50 54 65 36 29 38 41 39 22 14 44 38 36 33 17 22 11 13 13 26 44 42 50 61 57 50 64 62 56 52 50 58 52 48 62 66 69 61 43 39 34
71 70 70 56 50 48 56 57 54 31 41 39 42 44 36 41 44 42 9 31 4 1 21 17 24 37 47 49 58 47 57 53 62 62 59 50 47 46 50 43 50 72 65 55 45 43 37
70 66 64 58 48 52 49 48 52 33 42 46 48 47 35 44 55 65 37 48 20 19 22 26 26 47 55 54 57 57 56 56 56 59 60 41 37 38 30 25 47 48 67 65 65 54 46
70 64 63 58 54 54 54 51 48 46 44 54 46 46 36 43 48 14 58 65 45 4 11 20 41 45 60 60 59 61 60 60 55 58 61 52 36 25 9 10 13 43 58 70 71 61 61
70 63 59 59 54 51 52 49 48 55 50 50 50 47 44 42 44 41 60 63 44 7 18 54 49 56 54 63 51 62 60 66 49 57 64 49 41 32 27 24 26 45 46 43 51 56 63
66 63 61 60 56 50 52 49 47 61 67 51 50 44 47 58 58 59 59 58 44 36 22 27 64 57 42 39 38 27 29 34 44 44 52 48 44 38 32 31 43 39 36 60 60 57 65
62 61 62 60 59 54 49 49 53 64 77 53 49 48 49 55 59 62 59 50 55 47 5 41 41 31 39 36 39 41 38 45 42 39 42 18 34 35 36 39 45 42 42 46 49 59 63
61 60 60 62 58 54 52 56 53 56 72 57 56 47 46 48 48 46 51 43 51 47 32 6 50 47 33 44 48 50 47 41 44 43 43 30 29 34 38 42 39 34 35 38 33 47 45
62 59 59 60 57 54 55 57 55 59 68 58 52 54 51 52 59 50 48 45 39 40 31 12 13 23 25 51 54 49 56 41 49 50 47 32 28 65 50 43 46 35 31 29 27 34 38
63 59 58 59 57 56 54 52 53 55 65 59 54 50 51 52 55 44 43 46 45 36 34 9 4 3 13 46 45 47 41 44 39 28 31 40 40 52 46 52 54 21 29 30 30 28 27
63 60 59 60 59 56 54 54 50 47 62 58 52 47 45 51 47 43 47 48 46 39 31 4 36 5 7 36 43 40 34 31 28 32 21 33 37 35 36 41 35 24 24 23 26 24 23
Wind_Direction
300 298 297 295 291 297 302 308 315 317 318 320 323 322 324 328 332 336 338 339 338 335 334 323 316 319 313 290 285 318 326 328 321 294 277 281 279 279 273 277 267 259 268 267 268 265 266
301 298 296 295 293 291 297 302 307 313 313 316 320 321 319 324 332 337 338 340 340 335 336 325 314 315 302 288 304 290 304 306 310 309 288 277 279 278 277 274 269 275 267 266 263 264 265
300 300 296 296 294 291 294 296 300 305 309 309 314 317 318 321 328 336 339 344 343 336 337 328 315 306 294 295 313 308 288 291 297 300 299 288 275 278 284 275 274 268 270 267 261 261 261
299 299 297 295 294 291 292 294 294 298 303 307 310 313 316 316 322 330 336 340 342 341 339 334 320 305 295 306 291 302 303 296 291 289 288 289 294 276 273 282 274 267 264 262 258 261 257
305 301 300 297 295 292 292 293 292 293 296 301 304 308 312 314 317 324 331 337 338 335 336 338 328 310 300 318 288 288 283 293 298 298 295 283 282 277 274 269 270 260 257 251 259 256 257
305 302 300 297 293 292 290 291 291 291 293 295 299 302 308 313 314 321 329 333 331 328 329 333 319 320 304 305 310 297 281 275 289 294 291 280 276 269 264 254 250 254 254 257 254 253 255
308 305 297 295 291 290 289 288 288 288 290 291 296 299 304 311 314 321 329 328 323 323 310 305 323 313 321 319 322 306 290 282 281 280 276 273 264 254 249 250 257 258 257 257 257 254 252
307 304 294 292 289 287 286 285 284 285 287 288 293 295 302 309 313 320 323 321 325 331 315 281 288 288 289 320 305 296 289 276 272 270 270 269 255 255 263 259 256 252 253 252 260 252 252
304 302 302 292 286 283 283 281 280 280 282 286 291 292 298 308 314 314 312 317 332 331 315 311 278 283 295 289 290 291 260 263 272 268 262 260 265 264 261 257 253 248 247 247 252 253 254
308 301 294 298 295 282 279 276 276 276 278 280 288 289 293 312 312 312 315 330 332 338 317 318 320 320 280 304 295 272 270 260 277 267 269 273 268 263 260 254 250 245 244 241 248 246 239
315 306 297 288 294 291 276 271 271 271 272 276 281 282 284 286 322 319 338 354 1 347 317 342 339 351 338 280 313 300 250 264 263 267 271 273 271 261 256 255 249 243 246 231 232 248 243
317 310 300 286 284 286 279 265 264 266 266 269 269 273 274 287 299 331 358 5 354 329 318 333 341 339 334 312 308 314 246 244 268 270 267 275 282 269 254 245 240 236 234 232 222 240 238
319 310 298 284 274 276 275 263 259 260 261 264 264 268 257 287 297 356 19 347 324 318 338 336 336 340 323 319 303 297 248 225 256 271 270 269 252 250 256 239 221 219 217 219 231 229 233
315 307 296 283 265 272 274 264 257 256 257 260 263 267 255 282 343 69 7 323 316 327 325 340 342 336 328 328 316 245 289 216 208 227 219 212 220 230 231 218 207 203 207 213 226 226 222
314 307 298 284 265 264 273 262 248 250 252 257 260 263 261 260 180 355 319 312 325 331 336 337 345 340 338 339 347 244 220 192 209 198 202 222 216 225 219 213 207 207 210 215 239 227 225
313 307 300 284 273 264 275 266 243 247 248 249 253 257 266 221 178 281 304 308 322 334 340 350 347 359 1 28 79 155 203 215 208 195 196 236 230 224 206 211 212 211 220 219 233 224 226
311 309 300 288 272 273 274 264 242 245 241 237 251 254 270 183 243 280 297 315 322 325 350 5 356 11 56 75 166 195 200 217 198 196 176 227 228 216 206 202 199 217 219 219 229 235 227
309 310 302 295 277 272 272 263 253 239 232 235 244 251 249 173 266 286 297 317 329 352 118 10 102 132 141 184 186 193 200 211 178 182 196 208 215 198 206 219 225 212 212 219 228 234 252
306 309 306 289 274 273 273 269 250 226 213 234 241 257 245 241 270 281 301 312 324 347 44 57 100 156 180 170 189 199 210 217 170 184 185 193 207 194 214 225 225 218 213 217 240 245 245
301 305 306 299 286 276 260 267 239 209 222 235 241 246 260 259 278 283 283 288 216 133 192 157 158 179 183 188 192 197 203 198 188 183 180 200 214 232 233 216 205 214 220 235 241 243 250
300 298 303 301 297 283 291 262 238 216 221 232 240 250 260 258 260 248 290 286 175 19 152 144 143 186 193 203 198 197 197 198 193 202 195 216 228 208 234 212 217 221 213 227 235 242 254
299 295 301 302 295 285 277 274 269 224 222 233 242 249 262 271 266 272 212 239 215 39 114 146 173 185 197 214 207 201 193 190 199 182 180 191 225 242 257 262 235 231 230 224 228 242 247
297 290 294 300 294 286 277 266 262 222 223 236 240 251 261 266 272 276 259 257 217 163 187 196 187 190 206 213 231 219 214 209 218 210 209 228 224 242 246 261 260 247 252 252 256 254 249
295 288 291 297 291 290 277 266 272 226 225 239 243 254 257 255 257 260 261 270 209 221 192 163 194 173 241 243 246 255 232 236 240 235 228 244 253 267 271 273 259 270 275 248 254 259 251
292 287 290 294 290 285 271 270 268 230 218 239 244 250 253 257 257 256 263 280 280 287 124 174 248 246 257 250 243 243 247 244 251 262 261 266 260 269 272 271 274 275 275 265 261 259 255
291 286 288 295 288 282 273 271 266 237 222 237 241 249 255 260 265 280 275 287 261 286 301 180 249 247 260 240 234 231 241 247 248 252 253 254 262 273 275 271 275 286 297 285 283 272 277
291 284 285 291 288 279 275 269 263 245 226 235 245 246 252 259 259 276 276 276 286 279 291 305 293 257 249 240 235 236 221 245 238 242 243 256 268 228 255 269 269 288 300 286 282 286 289
290 282 283 288 286 279 271 263 259 241 228 234 245 246 247 256 260 282 284 272 260 280 278 341 339 273 155 237 244 245 249 244 254 263 253 253 249 243 252 251 255 310 296 288 290 305 312
289 281 282 286 285 277 267 263 258 253 231 233 245 248 254 255 265 277 275 268 270 278 279 74 255 228 295 248 247 249 255 260 270 265 274 265 262 271 268 267 286 306 312 312 315 321 327